Showing default

VIZARD-ION, 61749

Orbit data source: Space-Track

VIZARD-ION, 61749 is a Commonwealth of Independent States-origin payload satellite in SSO that was launched on Mon, 04 Nov 2024 UTC via a SOYUZ-2-1B launch vehicle from the Vostochny Cosmodrome (VOSTO). Payload-class satellites include a variety of spacecraft equipped with specific instruments for various scientific and technological missions. These include communications satellites like Starlink; space stations such as the ISS; scientific satellites like the Hubble; Earth observation satellites from companies like Planet Labs, Umbra, and HawkEye 360; GPS; miniature CubeSats for education and research; and military/defense satellites.

Not visible in the next 10 days
Identifier
61749, 2024-199Q
Orbit
SSO
Country
Flag of CISCIS
Related business
Manufacturer
Geoskan
Mission
Operational Commercial Technology
Bus & Motor
CUBESAT 3U, Unknown motor
Mass
3 kg wet, 3 kg dry
Launch date (UTC)
2024-11-04 (2 years ago)
Launch vehicle
SOYUZ-2-1B
Launch site
Vostochny Cosmodrome (VOSTO)
Object type
Payload
Rocket body
Debris
Shape & HBR
Box, 0.2 m
Radar Cross Section
0.035 m², Medium (>0.1 m² and < 1m²)

Expand to show TLE details & history
Last TLE update: 10 hours ago

TLE from 10 hours ago
0 VIZARD-ION
1 61749U 24199Q   26264.25719732  .00037557  00000-0  42794-3 0  9994
2 61749  97.2795 142.8291 0002616 273.6260  86.4699 15.62165485152537
Epoch: 2026-09-21T06:10Z
TLE epoch observation values (Epoch: 2026-09-21T06:10:21.848Z)
Latitude
-0.00003°
Longitude
50.09845°
Altitude
384.446 km
Speed
7.679 km/s
True Right ascension
09h 31m 18s
True Declination
0° 00' 00"
Sunlit
Object was in daylight at epoch
Visualization orbit readout
Latitude
Unknown
Longitude
Unknown
Altitude
Unknown
Speed
Unknown
Apparent Right ascension
Unknown
Apparent Declination
Unknown
Sunlit
N/A
Visualization observer readout
Local Sidereal Time
08:59:36
Azimuth
Unknown
Elevation
Unknown
Doppler factor
Unknown
Orbital elements
Apogee altitude
380.075 km
Perigee altitude
376.54 km
Semi-major axis
6,756.444 km
Eccentricity
0.00026
Inclination
97.2795°
RAAN
142.8291°
Arg. of periapsis
273.626°
True anomaly
86.49982°
Mean anomaly
86.4699°
Eccentric anomaly
86.48486°
Mean motion
3.9081 °/min
Orbital period
92.12 mins
BSTAR
0.00042794
Loading maneuver chart data...
Computing Atmospheric mass density...
Loading historical data...
Loading historical data...
Loading historical data...
Loading historical data...
Loading historical data...
Loading historical data...
Loading historical data...

Documentation

Showing up to 5 results
|